Dewpoint
18 11 11 11 12 11 9 9 9 11 18 17 15 12 15 29 31 29 23 27 32 40 48 51 53 56 58 60 60 60 62 64 62 59 56 55 53 55 55 55 60 58 54 58
15 15 10 11 9 10 11 11 8 15 20 20 20 16 21 23 30 30 28 27 28 42 47 51 54 56 59 59 58 60 61 63 62 58 61 60 58 55 55 55 57 54 56 55
15 14 16 14 10 5 6 8 10 15 20 22 23 20 18 20 30 32 30 32 34 43 47 52 54 56 56 56 56 58 61 62 62 62 58 58 55 55 52 51 51 54 55 55
15 17 15 13 12 13 14 20 17 15 17 14 18 16 25 25 32 33 34 35 38 42 48 50 53 53 52 49 51 56 60 61 58 61 57 58 53 51 51 51 51 54 55 54
18 20 17 15 16 20 17 20 21 20 20 20 17 16 18 24 33 35 35 38 40 44 45 49 53 52 48 47 50 55 59 60 60 60 59 54 54 52 52 51 53 54 54 52
21 21 20 18 20 22 21 20 19 20 18 18 26 30 28 28 33 35 37 39 40 42 46 47 46 47 45 45 46 53 57 59 58 57 58 58 56 55 51 52 50 48 50 51
26 25 21 23 21 20 22 27 22 21 21 28 33 31 31 33 32 27 37 38 40 44 42 43 42 42 46 49 49 48 52 55 54 55 57 56 56 55 54 51 49 51 49 49
23 21 25 26 24 22 24 31 23 21 19 23 32 25 29 30 31 33 32 34 39 42 41 44 41 42 40 46 49 48 51 53 54 55 55 55 56 50 50 50 52 50 49 50
27 26 29 27 25 23 23 26 29 30 27 20 22 33 33 33 32 33 33 34 36 39 41 40 42 43 43 47 46 49 48 50 53 51 53 53 53 53 51 53 53 50 51 51
30 28 25 26 27 26 24 24 26 25 26 23 20 24 34 32 32 32 32 33 36 37 37 38 42 43 47 47 48 53 53 49 52 51 48 48 50 51 52 52 51 51 52 51
32 33 29 29 28 29 27 29 31 33 32 29 24 24 34 33 32 32 32 32 33 34 34 35 37 39 42 43 44 49 49 49 50 49 48 49 50 51 51 51 50 52 51 50
34 39 35 30 30 34 30 29 30 29 29 29 33 31 34 33 32 34 33 33 34 34 33 32 35 40 42 42 44 45 49 48 47 46 47 49 50 50 49 49 51 50 49 49
42 38 33 31 34 36 35 33 29 31 33 30 28 25 34 32 35 34 33 32 34 36 33 36 37 38 40 42 44 45 46 45 44 45 45 48 50 48 49 49 49 49 48 47
45 38 34 29 29 33 32 33 30 32 35 27 26 27 33 38 36 34 33 33 32 34 39 39 38 37 39 44 44 44 45 44 44 45 45 46 47 49 48 49 49 48 48 46
41 38 36 33 31 30 28 26 25 26 26 30 30 27 35 36 35 35 33 32 31 35 38 38 38 40 39 41 42 42 44 45 45 44 45 47 47 46 48 49 50 49 49 48
41 39 38 34 31 29 28 27 24 21 21 22 26 30 36 36 34 32 34 38 38 38 37 38 39 39 39 40 40 42 45 44 45 44 44 44 46 47 48 49 48 49 50 50
42 42 38 35 34 32 32 26 29 28 27 28 27 32 33 33 32 37 40 40 39 37 39 39 39 40 42 39 42 44 44 45 45 44 45 44 45 46 48 48 49 50 51 51
40 43 39 37 33 32 32 31 28 26 29 34 34 35 34 33 33 41 41 40 39 40 40 40 41 41 42 43 43 44 45 45 44 44 45 45 45 47 48 48 49 51 51 51
42 40 42 41 38 32 33 36 32 29 36 38 37 35 33 34 35 41 41 41 41 41 41 42 42 42 43 43 43 45 44 44 44 44 44 45 45 47 47 48 50 51 51 51
37 41 41 36 33 29 40 39 36 34 32 40 36 34 37 39 36 36 42 41 42 42 43 43 42 42 44 44 45 45 43 44 44 43 46 44 46 46 48 50 51 52 51 51
38 39 34 34 36 38 40 39 36 30 39 41 35 39 40 38 40 43 43 41 42 42 43 43 42 42 44 45 45 45 46 45 44 46 45 45 47 48 49 50 51 51 51 50
35 37 38 38 35 35 42 39 38 41 40 38 39 40 40 41 40 40 41 41 42 42 42 42 42 43 45 47 46 44 45 47 47 44 44 45 47 44 46 49 50 49 49 48
35 41 43 42 42 48 39 39 41 41 39 39 39 43 41 40 40 40 40 41 42 42 42 43 42 43 46 44 44 44 45 44 45 44 45 44 45 45 48 47 45 42 43 42
38 40 36 34 35 34 34 40 41 39 41 43 42 41 41 41 40 39 41 41 41 42 43 43 42 43 43 41 42 43 44 45 46 47 46 45 46 47 45 43 43 42 42 42
37 37 32 31 34 38 41 41 42 41 40 39 39 40 40 39 40 41 41 41 42 43 43 43 43 41 40 42 40 42 46 47 45 47 45 44 43 48 48 43 42 42 43 41
34 35 31 37 40 38 42 42 42 40 38 40 39 39 39 41 41 42 42 42 43 43 42 42 43 42 42 43 45 44 48 45 45 45 40 40 46 48 49 46 44 41 41 40
Lifted_Index
3 3 2 1 0 -0 -0 -0 -0 -0 1 1 1 1 0 1 1 1 2 2 0 -1 -1 -1 -1 -1 -1 -0 1 2 2 2 2 3 3 3 3 3 3 3 3 3 4 4
2 2 1 1 1 0 -0 -0 -0 -0 0 1 1 1 1 1 1 1 1 1 0 -1 -2 -2 -2 -1 -1 0 1 2 2 2 2 2 3 3 3 3 4 4 4 4 4 3
1 1 1 1 1 1 0 -0 -0 -0 0 1 1 1 1 0 1 1 1 1 -0 -2 -2 -2 -2 -1 -0 1 2 3 2 2 2 2 3 3 4 4 4 4 4 4 3 3
1 1 2 2 1 0 0 0 0 1 1 1 1 0 0 -0 -0 0 0 -0 -1 -2 -2 -2 -2 -1 1 2 3 3 3 3 2 3 3 4 4 4 5 4 4 4 3 3
1 2 2 2 1 1 1 1 1 1 1 1 0 -0 -0 -0 -1 -0 -0 -0 -1 -1 -2 -2 -1 0 2 3 3 3 3 3 3 3 3 4 4 4 4 4 4 4 3 4
1 1 2 2 2 2 2 2 1 1 1 1 0 0 -0 -0 -1 -0 -0 -0 -1 -1 -1 -1 -0 1 2 3 3 3 3 3 3 4 4 4 4 4 4 4 4 4 4 4
0 1 1 2 2 2 1 1 1 0 0 0 -0 -0 0 -0 -0 -0 -0 -1 -1 -1 -1 -0 1 1 2 2 3 3 3 4 4 4 4 4 3 3 3 3 4 4 5 5
0 -0 0 1 1 1 1 -0 -0 -0 -0 -0 -0 -0 0 1 1 0 0 -0 -1 -1 -0 -0 0 1 1 2 3 3 4 4 4 4 4 3 3 3 3 3 4 4 5 5
1 0 0 0 1 1 1 -0 -0 -1 -1 -0 -0 0 0 1 1 1 1 1 0 0 0 0 1 1 2 2 2 3 3 3 3 3 3 3 3 3 3 4 4 5 5 5
1 1 0 0 0 1 0 0 -0 -0 -1 -1 -0 -0 0 1 1 2 2 2 1 1 1 1 2 2 2 3 3 3 3 3 3 3 3 4 3 3 4 4 5 5 5 5
1 1 0 -0 -0 0 0 -0 -0 -0 -1 -1 -1 -0 0 1 1 2 2 2 2 2 2 2 2 3 3 4 4 3 2 2 3 3 4 4 4 4 4 5 5 5 6 6
1 1 0 -0 -1 -0 -0 -1 -0 -0 -0 -0 -1 -0 0 1 1 2 2 2 2 2 3 3 3 4 4 4 4 4 3 2 3 4 4 4 5 5 6 6 6 6 7 7
1 1 1 0 -1 -1 -1 -1 -1 -0 -0 0 -0 -0 0 1 1 2 2 2 3 3 4 4 4 4 4 4 4 4 4 4 5 5 6 6 6 6 6 7 6 7 7 8
2 1 1 1 -0 -1 -1 -1 -1 -0 -0 -0 -0 -1 -0 1 1 2 2 3 3 4 4 4 5 5 5 5 5 5 5 6 6 7 7 7 7 7 7 7 7 7 7 7
1 1 1 1 0 -0 -1 -1 -0 -0 -0 -1 -1 -1 -0 1 1 2 3 3 3 4 4 5 5 5 5 6 7 7 7 7 8 8 8 8 8 8 7 7 6 6 6 6
1 1 1 1 1 0 -0 -0 0 0 0 -0 -1 -1 -0 1 2 3 3 3 3 4 4 5 5 6 6 7 8 9 9 8 9 9 9 8 8 7 7 6 6 6 6 6
1 1 1 1 1 1 0 0 1 0 0 -0 -0 0 1 2 3 3 3 4 4 4 5 5 6 6 7 8 9 9 9 9 9 8 8 7 7 6 6 6 6 6 6 6
1 1 1 1 1 1 0 1 1 1 0 -0 0 1 2 3 3 3 4 5 5 5 5 5 6 7 8 8 8 9 8 8 8 7 7 6 6 6 5 5 5 5 5 6
1 1 1 1 1 0 0 0 1 1 1 1 1 1 2 3 3 3 4 5 5 4 4 6 7 7 7 8 8 8 8 7 7 6 6 6 6 5 5 5 5 5 5 6
1 1 1 1 1 0 -0 0 1 1 1 1 2 2 3 3 3 4 4 4 4 4 5 6 7 7 7 7 7 7 7 6 6 6 6 5 5 5 5 5 5 5 5 6
0 0 0 0 0 -0 -0 0 0 0 1 1 2 3 3 4 4 4 5 5 4 5 6 7 7 7 7 7 6 6 6 5 5 5 5 5 5 5 5 4 5 5 5 6
-0 -0 -0 -0 -0 0 1 1 1 1 2 2 3 4 4 4 4 5 5 5 6 6 7 7 7 7 7 6 5 5 5 5 4 4 4 4 4 4 4 5 5 6 6 6
-0 -1 -1 -0 1 1 2 2 2 2 3 3 4 4 5 5 5 6 6 6 7 7 7 7 7 6 6 6 5 5 4 4 4 4 4 4 4 4 5 5 6 6 7 7
0 -0 0 1 1 2 2 2 2 3 3 4 5 5 6 6 6 7 7 7 7 7 7 7 7 6 6 5 5 5 4 4 4 4 4 4 4 4 5 6 6 7 8 8
1 1 1 1 1 1 1 1 2 3 4 5 6 7 7 7 7 7 7 7 7 7 7 7 6 6 5 5 5 5 4 4 4 4 4 4 4 4 5 6 7 8 8 9
1 1 2 1 1 1 1 1 2 4 5 6 7 8 8 7 7 7 7 7 7 7 7 7 6 6 5 5 5 4 4 4 4 4 4 4 4 4 5 6 7 8 8 9